When you browse on this site, cookies collect data to enhance your experience and personalize the content and advertising you see.
Visit our Privacy Policy to learn more. By continuing to use the site, you agree to this use of cookies and data.
  • In Hungary
  • List of Countries
  • For 7 days
  • Water Temperature
  • Satellite Maps
  • Weather Map
  • News
  • Weather Widgets
  • user-avatar
    Login

    Hourly Weather Buczkowice

    Today, 18 November, Sunday

    Time Temperature Precipitation Wind Pressure Humidity
    00:00 -3°C° 0 mm 2 mps 733 mmHg 63%
    01:00 -3°C° 0 mm 2 mps 732 mmHg 67%
    02:00 -3°C° 0 mm 2 mps 732 mmHg 68%
    03:00 -3°C° 0 mm 2 mps 732 mmHg 69%
    04:00 -1°C° 0 mm 1 mps 731 mmHg 70%
    05:00 -1°C° 0 mm 1 mps 731 mmHg 71%
    06:00 -1°C° 0 mm 1 mps 730 mmHg 72%
    07:00 -2°C° 0 mm 1 mps 730 mmHg 71%
    08:00 -1°C° 0 mm 1 mps 730 mmHg 66%
    09:00 +1°C° 0 mm 1 mps 730 mmHg 61%
    10:00 +1°C° 0 mm 2 mps 729 mmHg 57%
    11:00 +2°C° 0 mm 2 mps 729 mmHg 56%
    12:00 +2°C° 0 mm 2 mps 728 mmHg 55%
    13:00 +3°C° 0 mm 2 mps 728 mmHg 54%
    14:00 +2°C° 0.1 mm 2 mps 727 mmHg 58%
    15:00 +1°C° 0.1 mm 2 mps 727 mmHg 63%
    16:00 -1°C° 0.1 mm 2 mps 726 mmHg 67%
    17:00 -1°C° 0.1 mm 2 mps 726 mmHg 67%
    18:00 -1°C° 0.1 mm 2 mps 725 mmHg 66%
    19:00 -1°C° 0.1 mm 2 mps 725 mmHg 66%
    20:00 -2°C° 0 mm 2 mps 725 mmHg 67%
    21:00 -2°C° 0 mm 2 mps 725 mmHg 68%
    22:00 -2°C° 0 mm 2 mps 724 mmHg 69%
    23:00 -2°C° 0 mm 2 mps 724 mmHg 71%

    Tomorrow, 19 November, Monday

    Time Temperature Precipitation Wind Pressure Humidity
    00:00 -3°C° 0 mm 2 mps 724 mmHg 72%
    01:00 -3°C° 0 mm 2 mps 724 mmHg 74%
    02:00 -3°C° 0 mm 2 mps 723 mmHg 76%
    03:00 -3°C° 0 mm 2 mps 723 mmHg 77%
    04:00 -4°C° 0 mm 2 mps 723 mmHg 79%
    05:00 -4°C° 0 mm 2 mps 723 mmHg 80%
    06:00 -4°C° 0 mm 2 mps 723 mmHg 82%
    07:00 -4°C° 0 mm 2 mps 722 mmHg 84%
    08:00 -4°C° 0 mm 3 mps 723 mmHg 78%
    09:00 -2°C° 0 mm 3 mps 723 mmHg 71%
    10:00 -1°C° 0 mm 3 mps 723 mmHg 65%
    11:00 -2°C° 0 mm 4 mps 723 mmHg 64%
    12:00 -1°C° 0 mm 4 mps 723 mmHg 62%
    13:00 0°C° 0 mm 4 mps 723 mmHg 60%
    14:00 -1°C° 0 mm 4 mps 723 mmHg 64%
    15:00 -1°C° 0 mm 3 mps 723 mmHg 69%
    16:00 -2°C° 0 mm 3 mps 723 mmHg 73%
    17:00 -2°C° 0 mm 3 mps 723 mmHg 76%
    18:00 -2°C° 0 mm 3 mps 723 mmHg 78%
    19:00 -4°C° 0 mm 3 mps 724 mmHg 81%
    20:00 -4°C° 0 mm 3 mps 724 mmHg 82%
    21:00 -3°C° 0 mm 2 mps 724 mmHg 84%
    22:00 -3°C° 0 mm 2 mps 724 mmHg 85%
    23:00 -3°C° 0 mm 2 mps 724 mmHg 85%

    Day after tomorrow, 20 November, Tuesday

    Time Temperature Precipitation Wind Pressure Humidity
    00:00 -4°C° 0 mm 3 mps 724 mmHg 85%
    01:00 -4°C° 0 mm 3 mps 724 mmHg 85%
    02:00 -4°C° 0 mm 3 mps 723 mmHg 87%
    03:00 -4°C° 0 mm 3 mps 723 mmHg 88%
    04:00 -4°C° 0 mm 3 mps 723 mmHg 89%
    05:00 -4°C° 0 mm 3 mps 723 mmHg 88%
    06:00 -4°C° 0 mm 3 mps 723 mmHg 87%
    07:00 -2°C° 0 mm 3 mps 723 mmHg 87%
    08:00 -2°C° 0 mm 3 mps 722 mmHg 82%
    09:00 -2°C° 0 mm 4 mps 722 mmHg 78%
    10:00 -1°C° 0 mm 4 mps 721 mmHg 73%
    11:00 0°C° 0.1 mm 4 mps 721 mmHg 72%
    12:00 0°C° 0.1 mm 4 mps 721 mmHg 70%
    13:00 +1°C° 0.1 mm 4 mps 720 mmHg 69%
    14:00 0°C° 0.6 mm 4 mps 720 mmHg 73%
    15:00 0°C° 0.6 mm 4 mps 720 mmHg 77%
    16:00 +1°C° 0.6 mm 3 mps 720 mmHg 82%
    17:00 +1°C° 0.5 mm 3 mps 719 mmHg 84%
    18:00 0°C° 0.5 mm 3 mps 719 mmHg 86%
    19:00 0°C° 0.5 mm 3 mps 719 mmHg 89%
    20:00 +1°C° 0.1 mm 2 mps 719 mmHg 89%
    21:00 +1°C° 0.1 mm 2 mps 720 mmHg 90%
    22:00 +1°C° 0.1 mm 2 mps 720 mmHg 90%
    23:00 +1°C° 0 mm 2 mps 720 mmHg 90%

    21 November, Wednesday

    Time Temperature Precipitation Wind Pressure Humidity
    00:00 +1°C° 0 mm 2 mps 720 mmHg 90%
    01:00 +1°C° 0 mm 2 mps 720 mmHg 90%
    02:00 +1°C° 0 mm 2 mps 720 mmHg 91%
    03:00 +2°C° 0 mm 1 mps 720 mmHg 91%
    04:00 +2°C° 0 mm 1 mps 721 mmHg 91%
    05:00 +2°C° 0 mm 1 mps 721 mmHg 92%
    06:00 +1°C° 0 mm 2 mps 721 mmHg 92%
    07:00 +1°C° 0 mm 2 mps 721 mmHg 92%
    08:00 +2°C° 0 mm 2 mps 722 mmHg 91%
    09:00 +3°C° 0 mm 2 mps 722 mmHg 89%
    10:00 +3°C° 0 mm 2 mps 723 mmHg 87%
    11:00 +4°C° 0 mm 2 mps 723 mmHg 87%
    12:00 +4°C° 0 mm 2 mps 723 mmHg 86%
    13:00 +5°C° 0 mm 2 mps 723 mmHg 85%
    14:00 +4°C° 0 mm 2 mps 723 mmHg 87%
    15:00 +3°C° 0 mm 2 mps 723 mmHg 90%
    16:00 +2°C° 0 mm 2 mps 723 mmHg 92%
    17:00 +2°C° 0 mm 2 mps 723 mmHg 92%
    18:00 +2°C° 0 mm 2 mps 723 mmHg 93%
    19:00 +1°C° 0 mm 2 mps 724 mmHg 93%
    20:00 +1°C° 0 mm 2 mps 724 mmHg 93%
    21:00 +1°C° 0 mm 2 mps 724 mmHg 93%
    22:00 +1°C° 0 mm 2 mps 724 mmHg 94%
    23:00 +1°C° 0 mm 2 mps 724 mmHg 93%

    22 November, Thursday

    Time Temperature Precipitation Wind Pressure Humidity
    00:00 +1°C° 0 mm 2 mps 724 mmHg 93%
    01:00 +1°C° 0 mm 2 mps 724 mmHg 93%
    02:00 +1°C° 0 mm 2 mps 724 mmHg 93%
    03:00 +1°C° 0 mm 2 mps 725 mmHg 92%
    04:00 +2°C° 0 mm 2 mps 725 mmHg 92%
    05:00 +1°C° 0 mm 2 mps 725 mmHg 92%
    06:00 +1°C° 0 mm 2 mps 725 mmHg 92%
    07:00 +1°C° 0 mm 2 mps 725 mmHg 92%
    08:00 +2°C° 0 mm 2 mps 725 mmHg 90%
    09:00 +2°C° 0 mm 2 mps 726 mmHg 89%
    10:00 +3°C° 0 mm 2 mps 726 mmHg 87%
    11:00 +4°C° 0 mm 2 mps 726 mmHg 86%
    12:00 +4°C° 0 mm 2 mps 726 mmHg 85%
    13:00 +5°C° 0 mm 2 mps 726 mmHg 84%
    14:00 +4°C° 0 mm 2 mps 727 mmHg 86%
    15:00 +3°C° 0 mm 2 mps 727 mmHg 88%
    16:00 +3°C° 0 mm 2 mps 727 mmHg 91%
    17:00 +3°C° 0.1 mm 2 mps 727 mmHg 91%
    18:00 +2°C° 0.1 mm 2 mps 727 mmHg 92%
    19:00 +2°C° 0.1 mm 2 mps 728 mmHg 93%
    20:00 +2°C° 0.1 mm 2 mps 728 mmHg 93%
    21:00 +2°C° 0.1 mm 2 mps 728 mmHg 93%
    22:00 +3°C° 0.1 mm 1 mps 728 mmHg 93%
    23:00 +4°C° 0.1 mm 1 mps 728 mmHg 93%

    23 November, Friday

    Time Temperature Precipitation Wind Pressure Humidity
    00:00 +4°C° 0.1 mm 1 mps 728 mmHg 93%
    01:00 +4°C° 0.1 mm 1 mps 729 mmHg 93%
    02:00 +4°C° 0.1 mm 1 mps 729 mmHg 93%
    03:00 +4°C° 0.1 mm 1 mps 729 mmHg 93%
    04:00 +4°C° 0.1 mm 1 mps 729 mmHg 94%
    05:00 +4°C° 0 mm 1 mps 729 mmHg 94%
    06:00 +4°C° 0 mm 1 mps 729 mmHg 94%
    07:00 +4°C° 0 mm 1 mps 729 mmHg 94%
    08:00 +5°C° 0 mm 1 mps 729 mmHg 92%
    09:00 +5°C° 0 mm 1 mps 730 mmHg 90%
    10:00 +6°C° 0 mm 1 mps 730 mmHg 88%
    11:00 +7°C° 0 mm 1 mps 730 mmHg 86%
    12:00 +7°C° 0 mm 1 mps 730 mmHg 85%
    13:00 +8°C° 0 mm 1 mps 729 mmHg 83%
    14:00 +7°C° 0 mm 1 mps 729 mmHg 86%
    15:00 +7°C° 0 mm 1 mps 729 mmHg 88%
    16:00 +6°C° 0 mm 1 mps 729 mmHg 91%
    17:00 +6°C° 0 mm 1 mps 729 mmHg 92%
    18:00 +6°C° 0 mm 1 mps 728 mmHg 92%
    19:00 +6°C° 0 mm 1 mps 728 mmHg 93%
    20:00 +6°C° 0.1 mm 1 mps 728 mmHg 93%
    21:00 +6°C° 0.1 mm 1 mps 728 mmHg 93%
    22:00 +6°C° 0.1 mm 1 mps 728 mmHg 92%
    23:00 +6°C° 0 mm 1 mps 728 mmHg 92%
    Show more